Terug naar catalogus

SL-24 DEB

ActiefSSO
NORAD 39450·DEBRIS·🇷🇺 Russia

Gelanceerd Nov 21, 2013 vanaf Dombarovsky

Loading…

Volgende Passages (komende 24 uur)

TLE

VersSource: Space-Track

Epoch: Sep 14, 2026, 11:18 UTC

1 39450U 13066AL  26257.47110855  .00011638  00000-0  38022-3 0  9997
2 39450  97.3961 263.5194 0004266 346.8427  13.2702 15.31890488701268

Volg SL-24 DEB in realtime met AllMySat

Download on the App Store